K5PCJ Weather Reports


time (UTC)temp
C
wind
direction
speed
KPH
gust
KPH
rain 1hr
cm
rain 24hr
cm
rain mn
cm
humidity
%
barometer
mb
20260506130048 22 0 0.0 0.0 0.00 0.00 0.00 95 1010.5
20260506125543 22 0 0.0 0.0 0.00 0.00 0.00 95 1010.4
20260506125043 22 0 0.0 0.0 0.00 0.00 0.00 95 1010.4
20260506124551 22 0 0.0 0.0 0.00 0.00 0.00 95 1010.4
20260506124043 22 0 0.0 0.0 0.00 0.00 0.00 95 1010.4
20260506123544 22 0 0.0 0.0 0.00 0.00 0.00 95 1010.3
20260506123047 22 0 0.0 0.0 0.00 0.00 0.00 95 1010.2
20260506122546 22 0 0.0 0.0 0.00 0.00 0.00 95 1010.2
20260506122046 22 0 0.0 0.0 0.00 0.00 0.00 95 1010.3
20260506121602 22 0 0.0 0.0 0.00 0.00 0.00 95 1010.3
20260506121047 22 0 0.0 0.0 0.00 0.00 0.00 95 1010.2
20260506120544 22 0 0.0 0.0 0.00 0.00 0.00 95 1010.1
20260506120116 22 0 0.0 0.0 0.00 0.00 0.00 95 1010.1
20260506115548 22 0 0.0 0.0 0.00 0.00 0.00 94 1010.1
20260506115043 22 0 0.0 0.0 0.00 0.00 0.00 94 1009.9
20260506114551 22 0 0.0 0.0 0.00 0.00 0.00 94 1009.9
20260506114043 22 0 0.0 0.0 0.00 0.00 0.00 94 1009.8
20260506113548 22 0 0.0 0.0 0.00 0.00 0.00 94 1009.8
20260506113056 22 0 0.0 0.0 0.00 0.00 0.00 94 1009.6
20260506112545 22 0 0.0 0.0 0.00 0.00 0.00 94 1009.4
20260506112047 22 0 0.0 0.0 0.00 0.00 0.00 94 1009.3
20260506111546 22 0 0.0 0.0 0.00 0.00 0.00 94 1009.2
20260506111044 22 0 0.0 0.0 0.00 0.00 0.00 94 1009.2
20260506110548 22 0 0.0 0.0 0.00 0.00 0.00 94 1009.2
20260506110051 22 0 0.0 0.0 0.00 0.00 0.00 94 1009.2
20260506105549 22 0 0.0 0.0 0.00 0.00 0.00 94 1009.2
20260506105043 22 0 0.0 0.0 0.00 0.00 0.00 94 1009.3
20260506104548 22 0 0.0 0.0 0.00 0.00 0.00 93 1009.3
20260506104047 22 0 0.0 0.0 0.00 0.00 0.00 93 1009.1
20260506103543 22 0 0.0 0.0 0.00 0.00 0.00 93 1009.0
20260506103052 22 0 0.0 0.0 0.00 0.00 0.00 93 1009.1
20260506102547 22 0 0.0 0.0 0.00 0.00 0.00 93 1009.2
20260506102046 22 0 0.0 0.0 0.00 0.00 0.00 93 1009.2
20260506101550 22 0 0.0 0.0 0.00 0.00 0.00 93 1009.2
20260506101048 22 0 0.0 0.0 0.00 0.00 0.00 93 1009.1
20260506100555 23 0 0.0 0.0 0.00 0.00 0.00 93 1009.0
20260506100054 23 0 0.0 1.6 0.00 0.00 0.00 93 1008.9
20260506095548 23 0 0.0 1.6 0.00 0.00 0.00 93 1008.7
20260506095046 23 0 0.0 1.6 0.00 0.00 0.00 92 1008.8
20260506094549 23 0 0.0 1.6 0.00 0.00 0.00 93 1008.7
20260506094043 23 0 0.0 3.2 0.00 0.00 0.00 93 1008.7
20260506093547 23 0 0.0 3.2 0.00 0.00 0.00 93 1008.7
20260506093054 23 91 0.0 3.2 0.00 0.00 0.00 92 1008.8
20260506092544 23 0 0.0 1.6 0.00 0.00 0.00 92 1008.8
20260506092149 23 0 0.0 1.6 0.00 0.00 0.00 92 1008.8
20260506092051 23 0 0.0 1.6 0.00 0.00 0.00 92 1008.8
20260506091558 23 0 0.0 1.6 0.00 0.00 0.00 92 1008.9
20260506091043 23 354 0.0 1.6 0.00 0.00 0.00 92 1008.8
20260506090543 23 34 0.0 1.6 0.00 0.00 0.00 92 1008.8
20260506090050 23 0 0.0 1.6 0.00 0.00 0.00 92 1008.8
20260506085541 23 349 0.0 1.6 0.00 0.00 0.00 92 1008.8
20260506085045 23 0 0.0 3.2 0.00 0.00 0.00 91 1008.8
20260506084552 23 0 0.0 3.2 0.00 0.00 0.00 91 1008.8
20260506084044 23 0 0.0 3.2 0.00 0.00 0.00 91 1008.8
20260506083544 23 23 0.0 3.2 0.00 0.00 0.00 91 1008.9
20260506083048 23 6 0.0 3.2 0.00 0.00 0.00 91 1009.0
20260506082545 23 18 0.0 3.2 0.00 0.00 0.00 91 1009.1
20260506082044 23 30 0.0 1.6 0.00 0.00 0.00 91 1009.1
20260506081554 23 34 0.0 1.6 0.00 0.00 0.00 91 1009.2
20260506081044 23 34 0.0 1.6 0.00 0.00 0.00 91 1009.3
20260506080547 23 34 0.0 1.6 0.00 0.00 0.00 91 1009.4
20260506073055 23 35 0.0 1.6 0.00 0.00 0.00 91 1009.7
20260506072543 23 0 0.0 1.6 0.00 0.00 0.00 91 1009.7
20260506072044 23 0 0.0 1.6 0.00 0.00 0.00 91 1009.7
20260506071553 23 0 0.0 1.6 0.00 0.00 0.00 91 1009.7
20260506071045 23 0 0.0 1.6 0.00 0.00 0.00 91 1009.8
20260506070544 23 35 0.0 1.6 0.00 0.00 0.00 91 1009.7
20260506070109 23 0 0.0 1.6 0.00 0.00 0.00 91 1009.9
20260506062046 23 0 0.0 0.0 0.00 0.00 0.00 91 1009.9
20260506061546 23 0 0.0 0.0 0.00 0.00 0.00 91 1010.0
20260506061046 23 0 0.0 0.0 0.00 0.00 0.00 91 1010.0
20260506060546 23 0 0.0 0.0 0.00 0.00 0.00 91 1009.8
20260506051043 24 32 0.0 3.2 0.00 0.00 0.00 90 1010.0
20260506050544 24 32 0.0 3.2 0.00 0.00 0.00 90 1010.0
20260506045049 24 8 0.0 3.2 0.00 0.00 0.00 89 1010.0
20260506044555 24 0 0.0 3.2 0.00 0.00 0.00 89 1010.1
20260506044043 24 46 0.0 3.2 0.00 0.00 0.00 89 1010.1
20260506043544 24 23 0.0 3.2 0.00 0.00 0.00 89 1009.9
20260506043051 24 8 0.0 3.2 0.00 0.00 0.00 89 1009.9
20260506042545 24 356 0.0 3.2 0.00 0.00 0.00 88 1009.9
20260506042148 24 0 0.0 3.2 0.00 0.00 0.00 88 1009.9
20260506042054 24 0 0.0 3.2 0.00 0.00 0.00 88 1009.9
20260506041556 24 0 0.0 1.6 0.00 0.00 0.00 88 1009.9
20260506041049 24 0 0.0 1.6 0.00 0.00 0.00 88 1009.9
20260506040544 24 48 0.0 1.6 0.00 0.00 0.00 88 1009.8
20260506040051 24 49 0.0 1.6 0.00 0.00 0.00 88 1009.9
20260506035548 24 0 0.0 0.0 0.00 0.00 0.00 88 1009.8
20260506035044 25 0 0.0 0.0 0.00 0.00 0.00 88 1009.8
20260506034549 25 0 0.0 3.2 0.00 0.00 0.00 88 1009.7
20260506034046 25 0 0.0 3.2 0.00 0.00 0.00 88 1009.8
20260506033546 25 0 0.0 3.2 0.00 0.00 0.00 88 1009.7
20260506033052 25 26 0.0 4.8 0.00 0.00 0.00 88 1009.7
20260506032554 25 32 1.6 4.8 0.00 0.00 0.00 88 1009.6
20260506032044 25 283 1.6 4.8 0.00 0.00 0.00 88 1009.6
20260506031558 25 10 0.0 3.2 0.00 0.00 0.00 88 1009.4
20260506031044 25 46 0.0 3.2 0.00 0.00 0.00 88 1009.4
20260506030543 25 353 1.6 3.2 0.00 0.00 0.00 88 1009.3
20260506030109 25 18 0.0 3.2 0.00 0.00 0.00 88 1009.2
20260506025543 25 32 0.0 3.2 0.00 0.00 0.00 88 1009.2
20260506025045 25 21 0.0 3.2 0.00 0.00 0.00 88 1009.1
20260506024548 25 23 0.0 3.2 0.00 0.00 0.00 87 1009.0
20260506024047 25 0 0.0 3.2 0.00 0.00 0.00 87 1009.0
20260506023546 25 0 0.0 4.8 0.00 0.00 0.00 87 1008.9
20260506023052 25 25 0.0 4.8 0.00 0.00 0.00 87 1008.9
20260506022548 25 25 0.0 3.2 0.00 0.00 0.00 87 1008.8
20260506022046 25 0 0.0 3.2 0.00 0.00 0.00 87 1008.6
20260506021551 25 41 0.0 3.2 0.00 0.00 0.00 87 1008.5
20260506021044 25 32 0.0 3.2 0.00 0.00 0.00 87 1008.4
20260506020543 25 32 0.0 3.2 0.00 0.00 0.00 87 1008.4
20260506020048 25 10 0.0 3.2 0.00 0.00 0.00 87 1008.3
20260506015547 25 0 0.0 3.2 0.00 0.00 0.00 87 1008.2
20260506015046 25 1 0.0 3.2 0.00 0.00 0.00 87 1008.3
20260506014600 25 354 0.0 3.2 0.00 0.00 0.00 87 1008.2
20260506014045 25 37 0.0 3.2 0.00 0.00 0.00 87 1008.1
20260506013554 25 0 0.0 1.6 0.00 0.00 0.00 87 1008.1
20260506013109 25 0 0.0 1.6 0.00 0.00 0.00 86 1007.9
20260506012545 25 36 0.0 1.6 0.00 0.00 0.00 86 1007.9
20260506012044 25 0 0.0 3.2 0.00 0.00 0.00 86 1007.9
20260506011555 25 0 0.0 3.2 0.00 0.00 0.00 86 1007.7
20260506011045 25 39 1.6 4.8 0.00 0.00 0.00 86 1007.7
20260506010546 25 0 0.0 4.8 0.00 0.00 0.00 85 1007.7
20260506010054 25 345 1.6 4.8 0.00 0.00 0.00 85 1007.8
20260506005548 25 13 0.0 3.2 0.00 0.00 0.00 85 1007.8
20260506005044 25 0 0.0 1.6 0.00 0.00 0.00 86 1007.7
20260506004622 25 34 0.0 3.2 0.00 0.00 0.00 85 1007.7
20260506004043 25 34 0.0 3.2 0.00 0.00 0.00 85 1007.6
20260506003552 26 5 0.0 4.8 0.00 0.00 0.00 86 1007.6
20260506003049 26 0 0.0 4.8 0.00 0.00 0.00 86 1007.5
20260506002544 26 349 0.0 4.8 0.00 0.00 0.00 85 1007.4
20260506002049 26 30 0.0 3.2 0.00 0.00 0.00 85 1007.3
20260506001549 26 19 0.0 3.2 0.00 0.00 0.00 85 1007.2
20260506001044 26 0 0.0 3.2 0.00 0.00 0.00 85 1007.4
20260506000544 26 0 0.0 3.2 0.00 0.00 0.00 85 1007.5
20260506000050 26 11 0.0 3.2 0.00 0.00 0.00 85 1007.5
20260505235544 26 5 0.0 3.2 0.00 0.00 0.00 85 1007.3
20260505235041 26 0 1.6 3.2 0.00 0.00 0.00 85 1007.3
20260505234609 26 354 0.0 3.2 0.00 0.00 0.00 85 1007.3
20260505234044 26 23 0.0 4.8 0.00 0.00 0.00 85 1007.3
20260505233543 26 6 1.6 4.8 0.00 0.00 0.00 85 1007.3
20260505233051 26 0 0.0 4.8 0.00 0.00 0.00 85 1007.5
20260505232545 26 356 0.0 4.8 0.00 0.00 0.00 84 1007.5
20260505232048 26 40 0.0 3.2 0.00 0.00 0.00 84 1007.4
20260505231553 26 342 0.0 3.2 0.00 0.00 0.00 84 1007.5
20260505231044 27 81 1.6 3.2 0.00 0.00 0.00 84 1007.5
20260505230544 27 27 0.0 3.2 0.00 0.00 0.00 83 1007.4
20260505230052 27 8 1.6 8.0 0.00 0.00 0.00 83 1007.3
20260505225544 27 0 1.6 8.0 0.00 0.00 0.00 82 1007.2
20260505225045 27 312 3.2 8.0 0.00 0.00 0.00 82 1007.1
20260505224552 27 9 1.6 4.8 0.00 0.00 0.00 81 1007.1
20260505224043 27 53 1.6 9.7 0.00 0.00 0.00 81 1007.3
20260505223543 27 330 1.6 9.7 0.00 0.00 0.00 81 1007.2
20260505223101 27 321 1.6 6.4 0.00 0.00 0.00 81 1007.2
20260505222543 27 349 1.6 6.4 0.00 0.00 0.00 81 1007.3
20260505222043 27 9 1.6 6.4 0.00 0.00 0.00 81 1007.3
20260505221605 27 15 1.6 8.0 0.00 0.00 0.00 80 1007.3
20260505221043 28 345 1.6 8.0 0.00 0.00 0.00 79 1007.3
20260505220547 28 345 1.6 8.0 0.00 0.00 0.00 79 1007.4
20260505220119 28 7 1.6 4.8 0.00 0.00 0.00 79 1007.5
20260505215544 28 0 1.6 4.8 0.00 0.00 0.00 80 1007.6
20260505215044 27 56 1.6 4.8 0.00 0.00 0.00 80 1007.7
20260505214604 28 352 1.6 4.8 0.00 0.00 0.00 80 1007.6
20260505214045 28 356 1.6 4.8 0.00 0.00 0.00 80 1007.7
20260505213543 28 350 1.6 4.8 0.00 0.00 0.00 80 1007.8
20260505213051 28 27 1.6 4.8 0.00 0.00 0.00 80 1007.7
20260505212543 28 356 1.6 4.8 0.00 0.00 0.00 79 1007.8
20260505212044 28 336 1.6 6.4 0.00 0.00 0.00 78 1008.0
20260505211559 28 37 0.0 6.4 0.00 0.00 0.00 78 1007.9
20260505211044 28 85 0.0 3.2 0.00 0.00 0.00 79 1007.9
20260505210545 28 37 0.0 3.2 0.00 0.00 0.00 80 1008.0
20260505210051 28 13 0.0 4.8 0.00 0.00 0.00 80 1008.1
20260505205546 28 41 1.6 4.8 0.00 0.00 0.00 79 1008.1
20260505205040 28 36 1.6 6.4 0.00 0.00 0.00 78 1008.2
20260505204552 28 350 1.6 6.4 0.00 0.00 0.00 78 1008.3
20260505204044 28 332 1.6 4.8 0.00 0.00 0.00 78 1008.2
20260505203544 28 349 1.6 8.0 0.00 0.00 0.00 78 1008.3
20260505203053 28 49 1.6 8.0 0.00 0.00 0.00 78 1008.3
20260505202545 28 44 1.6 4.8 0.00 0.00 0.00 78 1008.4
20260505202044 28 58 0.0 3.2 0.00 0.00 0.00 80 1008.6
20260505201602 28 39 0.0 6.4 0.00 0.00 0.00 80 1008.7
20260505201047 28 46 1.6 9.7 0.00 0.00 0.00 79 1008.9
20260505200544 28 27 1.6 9.7 0.00 0.00 0.00 77 1008.9
20260505195546 28 47 0.0 4.8 0.00 0.00 0.00 79 1009.0
20260505195045 28 75 1.6 4.8 0.00 0.00 0.00 79 1009.0
20260505194555 28 56 0.0 4.8 0.00 0.00 0.00 81 1009.0
20260505194043 27 39 1.6 4.8 0.00 0.00 0.00 82 1009.1
20260505193543 27 342 1.6 8.0 0.00 0.00 0.00 82 1009.1
20260505193052 27 36 1.6 8.0 0.00 0.00 0.00 82 1009.3
20260505192548 27 348 3.2 8.0 0.00 0.00 0.00 82 1009.3
20260505192047 27 3 0.0 4.8 0.00 0.00 0.00 82 1009.4
20260505191556 27 0 0.0 4.8 0.00 0.00 0.00 81 1009.4
20260505191159 27 360 1.6 6.4 0.00 0.00 0.00 81 1009.5
20260505190544 27 20 1.6 6.4 0.00 0.00 0.00 81 1009.5
20260505185544 27 303 0.0 3.2 0.00 0.00 0.00 81 1009.6
20260505185044 27 25 1.6 6.4 0.00 0.00 0.00 81 1009.6
20260505184553 27 80 1.6 6.4 0.00 0.00 0.00 81 1009.6
20260505184044 27 0 1.6 9.7 0.00 0.00 0.00 81 1009.6
20260505183543 27 309 1.6 14.5 0.00 0.00 0.00 81 1009.7
20260505183053 27 37 3.2 14.5 0.00 0.00 0.00 81 1009.7
20260505182543 27 23 0.0 4.8 0.00 0.00 0.00 81 1009.7
20260505182045 27 18 0.0 6.4 0.00 0.00 0.00 81 1009.7
20260505181549 27 32 1.6 6.4 0.00 0.00 0.00 82 1009.7
20260505181046 26 8 1.6 3.2 0.00 0.00 0.00 82 1009.7
20260505180542 26 25 1.6 6.4 0.00 0.00 0.00 82 1009.7
20260505180050 26 0 0.0 6.4 0.00 0.00 0.00 82 1009.7
20260505175540 26 54 0.0 6.4 0.00 0.00 0.00 82 1009.8
20260505175044 26 81 1.6 9.7 0.00 0.00 0.00 82 1009.8
20260505174552 26 34 1.6 9.7 0.00 0.00 0.00 82 1009.8
20260505174044 26 53 1.6 9.7 0.00 0.00 0.00 83 1009.9
20260505173547 26 355 1.6 4.8 0.00 0.00 0.00 83 1010.0
20260505173050 26 354 1.6 4.8 0.00 0.00 0.00 83 1010.2
20260505172543 26 0 0.0 0.0 0.00 0.00 0.00 85 1010.2
20260505172041 26 0 0.0 0.0 0.00 0.00 0.00 85 1010.2
20260505171546 26 0 0.0 0.0 0.00 0.00 0.00 85 1010.3
20260505171048 25 0 0.0 0.0 0.00 0.00 0.00 85 1010.2
20260505170541 25 0 0.0 1.6 0.00 0.00 0.00 86 1010.2
20260505170046 25 0 0.0 3.2 0.00 0.00 0.00 86 1010.2
20260505165540 25 25 0.0 3.2 0.00 0.00 0.00 86 1010.2
20260505165048 25 28 0.0 1.6 0.00 0.00 0.00 85 1010.4
20260505164549 25 53 0.0 3.2 0.00 0.00 0.00 85 1010.3
20260505164040 25 0 0.0 3.2 0.00 0.00 0.00 85 1010.3
20260505163540 25 30 1.6 3.2 0.00 0.00 0.00 85 1010.3
20260505163051 25 38 0.0 3.2 0.00 0.00 0.00 85 1010.2
20260505162543 25 56 0.0 6.4 0.00 0.00 0.00 86 1010.1
20260505162041 25 9 0.0 6.4 0.00 0.00 0.00 86 1010.1
20260505161544 25 8 1.6 6.4 0.00 0.00 0.00 85 1010.2
20260505161041 25 0 1.6 3.2 0.00 0.00 0.00 85 1010.2
20260505160542 25 39 0.0 3.2 0.00 0.00 0.00 85 1010.3
20260505160105 25 332 1.6 3.2 0.00 0.00 0.00 85 1010.3
20260505153052 25 67 0.0 3.2 0.00 0.00 0.00 85 1010.1
20260505152540 25 330 0.0 3.2 0.00 0.00 0.00 85 1010.0
20260505152045 25 30 0.0 3.2 0.00 0.00 0.00 85 1010.1
20260505151549 25 32 0.0 3.2 0.00 0.00 0.00 85 1010.1
20260505151046 25 0 0.0 6.4 0.00 0.00 0.00 85 1010.1
20260505150541 25 44 0.0 6.4 0.00 0.00 0.00 85 1010.2
20260505140544 23 35 1.6 4.8 0.00 0.00 0.00 86 1009.9